Chatham, MA

6:41 AM EST on December 07, 2019 (GMT -0500)
Chatham Municipal

Weather History for KCQX - October, 2019

Change the Weather History Date:

Tuesday, October 29, 2019

  Actual Average Record
Temperature  
Mean Temperature 54 °F -  
Max Temperature 57 °F 54 °F 69 °F (1984)
Min Temperature 52 °F 42 °F 33 °F (1997)
Degree Days  
Heating Degree Days 10    
Growing Degree Days 4 (Base 50)    
Moisture  
Dew Point 50 °F    
Average Humidity 85    
Maximum Humidity 93    
Minimum Humidity 77    
Precipitation  
Precipitation 0.00 in - - ()
Sea Level Pressure  
Sea Level Pressure 30.35 in    
Wind  
Wind Speed 8 mph (East)    
Max Wind Speed 13 mph    
Max Gust Speed 18 mph    
Visibility 10 miles    
Events      
Averages and records for this station are not official NWS values.
T = Trace of Precipitation, MM = Missing Value Source: NWS Daily Summary

Daily Weather History Graph

Daily Weather History Graph

Search for Another Location

Airport or City:

Astronomy

Oct. 29, 2019 Rise Set
Actual Time 7:08 AM EDT 5:38 PM EDT
Civil Twilight 6:39 AM EDT 6:07 PM EDT
Nautical Twilight 6:06 AM EDT 6:39 PM EDT
Astronomical Twilight 5:34 AM EDT 7:12 PM EDT
Moon 8:38 AM EDT (10/29) 6:59 PM EDT (10/29)
Length of Visible Light 11h 27m
Length of Day
10h 30m
Waxing Crescent, 3% of the Moon is Illuminated
Oct 29
Waxing Crescent
Nov 4
First Quarter
Nov 12
Full
Nov 19
Last Quarter
Nov 26
New

Hourly Weather History & Observations

Time (EDT) Temp. Dew Point Humidity Pressure Visibility Wind Dir Wind Speed Gust Speed Precip Events Conditions
12:52 AM 53.1 °F 46.0 °F 77% 30.34 in 10.0 mi East 9.2 mph - N/A   Overcast
1:52 AM 53.1 °F 46.0 °F 77% 30.34 in 10.0 mi ESE 12.7 mph 18.4 mph N/A   Overcast
2:52 AM 52.0 °F 46.0 °F 80% 30.35 in 10.0 mi ENE 6.9 mph - N/A   Overcast
3:52 AM 52.0 °F 46.9 °F 83% 30.35 in 10.0 mi East 6.9 mph - N/A   Overcast
4:52 AM 52.0 °F 46.9 °F 83% 30.36 in 10.0 mi ENE 6.9 mph - N/A   Overcast
5:52 AM 53.1 °F 46.9 °F 80% 30.36 in 10.0 mi East 6.9 mph - N/A   Overcast
6:52 AM 52.0 °F 46.9 °F 83% 30.36 in 10.0 mi ENE 4.6 mph - N/A   Overcast
7:29 AM 52.0 °F 46.9 °F 83% 30.36 in 10.0 mi East 4.6 mph - N/A   Overcast
7:52 AM 53.1 °F 46.9 °F 80% 30.38 in 10.0 mi East 8.1 mph - N/A   Overcast
8:32 AM 53.1 °F 48.0 °F 83% 30.38 in 10.0 mi ESE 6.9 mph - N/A   Overcast
8:52 AM 53.1 °F 48.0 °F 83% 30.39 in 10.0 mi East 8.1 mph - N/A   Overcast
9:03 AM 53.1 °F 48.0 °F 83% 30.39 in 10.0 mi East 8.1 mph - N/A   Overcast
9:52 AM 53.1 °F 50.0 °F 89% 30.38 in 6.0 mi East 6.9 mph - N/A   Overcast
10:52 AM 55.0 °F 50.0 °F 83% 30.38 in 10.0 mi Variable 6.9 mph - N/A   Overcast
11:27 AM 55.0 °F 48.9 °F 80% 30.38 in 10.0 mi ESE 9.2 mph - N/A   Overcast
11:52 AM 55.0 °F 48.9 °F 80% 30.38 in 10.0 mi East 9.2 mph - N/A   Overcast
12:52 PM 57.0 °F 50.0 °F 77% 30.36 in 10.0 mi East 9.2 mph - N/A   Overcast
1:05 PM 57.0 °F 50.0 °F 77% 30.35 in 10.0 mi ENE 8.1 mph - N/A   Overcast
1:52 PM 57.0 °F 51.1 °F 81% 30.34 in 10.0 mi East 6.9 mph - N/A   Overcast
2:52 PM 57.0 °F 51.1 °F 81% 30.34 in 10.0 mi East 5.8 mph - N/A   Overcast
3:52 PM 55.9 °F 51.1 °F 84% 30.33 in 10.0 mi Variable 6.9 mph - N/A   Overcast
4:52 PM 55.9 °F 51.1 °F 84% 30.32 in 10.0 mi East 6.9 mph - N/A   Overcast
5:52 PM 55.0 °F 52.0 °F 89% 30.33 in 10.0 mi ESE 5.8 mph - N/A   Overcast
6:33 PM 54.0 °F 52.0 °F 93% 30.32 in 10.0 mi Variable 5.8 mph - N/A   Scattered Clouds
6:52 PM 54.0 °F 52.0 °F 93% 30.32 in 10.0 mi ESE 5.8 mph - N/A   Clear
7:45 PM 54.0 °F 52.0 °F 93% 30.33 in 10.0 mi East 4.6 mph - N/A   Mostly Cloudy
7:52 PM 55.0 °F 52.0 °F 89% 30.34 in 10.0 mi ESE 5.8 mph - N/A   Overcast
8:11 PM 55.0 °F 52.0 °F 89% 30.34 in 10.0 mi ESE 5.8 mph - N/A   Overcast
8:52 PM 55.0 °F 52.0 °F 89% 30.34 in 10.0 mi ESE 4.6 mph - N/A   Overcast
9:52 PM 55.0 °F 53.1 °F 93% 30.35 in 10.0 mi East 4.6 mph - N/A   Overcast
10:52 PM 55.0 °F 53.1 °F 93% 30.34 in 10.0 mi ESE 8.1 mph - N/A   Overcast
11:22 PM 55.9 °F 53.1 °F 90% 30.34 in 10.0 mi SE 4.6 mph - N/A   Overcast
11:52 PM 55.9 °F 53.1 °F 90% 30.34 in 10.0 mi ESE 6.9 mph - N/A   Overcast